Starlink 11722

operational
NORAD ID: 64128 Int'l Des: 2025-111 Owner: SPXS Country: US Constellation: starlink
LEOCIRCULAR

About Starlink 11722

Description loading...

Live Position

Loading 3D Globe...

Upcoming Passes

Altitude History

Altitude vs Time

uPlot chart will show altitude changes over time

Two-Line Element Set

1 64128U 25111F 25314.75069898 .00385635 00000-0 28598-2 0 9992
2 64128 42.9980 330.7276 0000633 7.6538 352.4339 15.70936690 27884
Epoch: Nov 10, 2025 • Age: 20 hours

Current Status

Altitude 354.1 km
Velocity 7.70 km/s
Sub-Earth Point 21.80°N, 147.74°W
Launch Date May 24, 2025
Age 0.4 years
Type internet

Technical Details

Classification Payload
Mass 960.00 kg
Dry Mass 910.00 kg
Total Mass 960.00 kg
Length 0.30 m
Diameter 4.10 m
Span 29.00 m
Shape Box + pan
Manufacturer SPXS
Bus Type Starlink V2MD
Phase Status In Orbit
Owner/State SPXS/US

Large Constellations

Loading constellations...